Home   Weather   Bendigo   Past weeks

Flag for Australia Past Weather in Bendigo, Victoria, Australia — Yesterday and Last 2 Weeks

Now
61 °F

Cool.


Feels Like: 61 °F
Forecast: 50 / 64 °F
Wind: 2 mph from Northwest

Location: Bendigo Airport Aws

Current Time: Apr 28, 2017 at 6:37:19 pm

Latest Report: Apr 28, 2017 at 5:00 pm


Visibility: N/A

Pressure: 30.21 "Hg

Humidity: 71%

Dew Point: 52 °F

Location of BendigoLocation

Past Weather in Bendigo — Graph

°F

Bendigo Temperature Yesterday

Maximum temperature yesterday: 56 °F (at 3:00 pm)
Minimum temperature yesterday: 40 °F (at 6:00 am)
Average temperature yesterday: 49 °F

High & Low Weather Summary for the Past Weeks

 TemperatureHumidityPressure
High76 °F (Apr 19, 3:00 pm)98% (Apr 21, 6:00 am)30.36 "Hg (Apr 21, 6:00 am)
Low40 °F (Apr 27, 6:00 am)26% (Apr 18, 2:00 pm)29.68 "Hg (Apr 26, 3:00 am)
Average60 °F74%30.14 "Hg
* Reported Apr 13 5:00 pm — Apr 28 5:00 pm, Bendigo, Weather by CustomWeather, © 2017

Note: Actual official high and low records may vary slightly from our data, if they occured in-between our weather recording intervals... More about our weather records

Advertising

Bendigo Weather History for the Previous 24 Hours

Scroll right to see more
 ConditionsComfort  
Time TempWeatherWind HumidityBarometerVisibility
5:00 pm
Fri, Apr 28
61 °FCool.2 mph71%30.21 "HgN/A
3:00 pm61 °FOvercast.5 mph69%30.22 "HgN/A
2:00 pm61 °FCool.8 mph69%30.22 "HgN/A
12:00 pm61 °FOvercast.8 mph67%30.25 "HgN/A
11:00 am59 °FCool.8 mph70%30.27 "HgN/A
9:00 am55 °FOvercast.6 mph81%30.27 "HgN/A
8:00 am51 °FCool.5 mph90%30.26 "HgN/A
6:00 am48 °FPassing clouds.No wind90%30.23 "HgN/A
5:00 am51 °FCool.6 mph87%30.23 "HgN/A
3:00 am46 °FPassing clouds.No wind94%30.22 "HgN/A
2:00 am49 °FCool.No wind90%30.23 "HgN/A
12:00 am50 °FOvercast.8 mph85%30.24 "HgN/A
11:00 pm
Thu, Apr 27
51 °FCool.6 mph83%30.24 "HgN/A
9:00 pm51 °FPassing clouds.3 mph82%30.24 "HgN/A
8:00 pm51 °FCool.3 mph79%30.23 "HgN/A
6:00 pm50 °FPassing clouds.6 mph77%30.20 "HgN/A
Weather by CustomWeather, © 2017

See weather overviewHow to use our weather pages